Torna al catalogo

STARLINK-30132

AttivoComunicazioniVLEO
NORAD 56703·PAYLOAD·🇺🇸 United States

Lanciato May 19, 2023 da Cape Canaveral Space Force Station

Loading…

Prossimi Passaggi (prossime 24 ore)

TLE

AggiornatoSource: CelesTrak SupGP

Epoca: Sep 14, 2026, 21:07 UTC

1 56703C 23067R   26257.88034722 -.00002357  00000+0 -85393-4 0  2572
2 56703  42.9998 285.5898 0001406 269.8418 293.4054 15.27576216    18

Traccia STARLINK-30132 in tempo reale con AllMySat

Download on the App Store